Regional Weather Roundup
Issued by NWS

Home | Current Version | Previous Version | Text Only | Print | Product List | Glossary On
Versions: 1 2 3 4 5 6 7 8 9 10 11 12 13 14 15 16 17 18 19 20 21 22 23 24 25 26 27 28 29 30 31 32 33 34 35 36 37 38 39 40 41 42 43 44 45 46 47 48 49 50
000
ASUS44 KOUN 281210
RWROK

WEATHER ROUNDUP FOR OKLAHOMA
NATIONAL WEATHER SERVICE NORMAN OK
700 AM CDT MON JUL 28 2014

NOTE: "FAIR" INDICATES FEW OR NO CLOUDS BELOW 12,000 FEET WITH NO
      SIGNIFICANT WEATHER AND/OR OBSTRUCTIONS TO VISIBILITY.

OKZ001>007-009>012-014-015-017-281300-
NORTHWEST OKLAHOMA AND THE PANHANDLE

CITY           SKY/WX    TMP DP  RH WIND       PRES   REMARKS
GAGE           CLOUDY    71  64  78 CALM      30.27R
6HR MIN TEMP:  69; 6HR MAX TEMP:  72;

ENID/WOODRING  MOCLDY    68  63  83 NE3       30.20R
$$

OKZ016-021>023-033>039-044-045-281300-
SOUTHWEST OKLAHOMA

CITY           SKY/WX    TMP DP  RH WIND       PRES   REMARKS
LAWTON/REGL    CLOUDY    74  62  66 NE14      30.14S
6HR MIN TEMP:  73; 6HR MAX TEMP:  83; 6HR PCP: TRACE;

LAWTON/FT SILL LGT RAIN  73  64  73 NE7       30.15R
FREDERICK      MOCLDY    77  65  66 E17       30.11R
CLINTON        TSTM      69  63  81 CALM      30.24R
HOBART         CLOUDY    71  61  70 E17       30.19R THUNDER
ALTUS AFB      MOCLDY    73  63  70 NE18G25   30.15R
$$

OKZ018>020-024>031-281300-
CENTRAL OKLAHOMA

CITY           SKY/WX    TMP DP  RH WIND       PRES   REMARKS
OKLAHOMA CITY  MOCLDY    74  62  66 NE12      30.19R
6HR MIN TEMP:  72; 6HR MAX TEMP:  78;

OKC/WILEY POST PTCLDY    74  61  63 E8        30.19R
OKC/TINKER AFB PTCLDY    70  63  78 NE9       30.19R
STILLWATER     MOCLDY    67  61  81 CALM      30.19R
GUTHRIE        PTCLDY    72  61  68 E9        30.18R
$$

OKZ008-013-054>072-281300-
NORTHEAST OKLAHOMA

CITY           SKY/WX    TMP DP  RH WIND       PRES   REMARKS
TULSA          MOCLDY    66  61  84 NW6       30.16R
6HR MIN TEMP:  65; 6HR MAX TEMP:  73;

TULSA/JONES    CLEAR     69  63  81 CALM      30.17R
PONCA CITY     PTCLDY    63  59  87 CALM      30.20R
BARTLESVILLE   CLEAR     60  59  96 CALM      30.20R
MUSKOGEE       CLEAR     68  64  87 N6        30.16R
$$

OKZ032-040>043-046>053-073>077-281300-
SOUTH CENTRAL/SOUTHEAST OKLAHOMA

CITY           SKY/WX    TMP DP  RH WIND       PRES   REMARKS
ARDMORE/DWNTWN MOCLDY    73  70  88 NE3       30.12S
MCALESTER      PTCLDY    75  68  78 NE5       30.14R
$$



USA.gov is the U.S. government's official web portal to all federal, state and local government web resources and services.